DJ2DS-13 Weather Reports


time (UTC)temp
C
wind
direction
speed
KPH
gust
KPH
rain 1hr
cm
rain 24hr
cm
rain mn
cm
humidity
%
barometer
mb
20260507055943 7 35 0.0 3.2 0.00 0.00 0.00 92 1013.5
20260507055443 7 23 0.0 1.6 0.00 0.00 0.00 92 1013.4
20260507054942 7 8 0.0 1.6 0.00 0.00 0.00 92 1013.3
20260507054443 7 1 0.0 3.2 0.00 0.00 0.00 92 1013.2
20260507053944 7 1 0.0 3.2 0.00 0.00 0.00 92 1013.2
20260507053442 6 0 0.0 0.0 0.00 0.00 0.00 92 1013.2
20260507052942 6 0 0.0 0.0 0.00 0.00 0.00 92 1013.1
20260507052442 6 0 0.0 0.0 0.00 0.00 0.00 92 1013.0
20260507051942 6 0 0.0 0.0 0.00 0.00 0.00 92 1013.0
20260507051443 5 0 0.0 0.0 0.00 0.00 0.00 92 1013.0
20260507050942 5 0 0.0 0.0 0.00 0.00 0.00 92 1013.0
20260507050442 5 0 0.0 0.0 0.00 0.00 0.00 92 1013.0
20260507045942 4 0 0.0 0.0 0.00 0.00 0.00 92 1012.8
20260507045440 4 0 0.0 0.0 0.00 0.00 0.00 91 1012.7
20260507044941 3 0 0.0 0.0 0.00 0.00 0.00 91 1012.7
20260507044440 3 0 0.0 0.0 0.00 0.00 0.00 91 1012.7
20260507043940 3 0 0.0 0.0 0.00 0.00 0.00 91 1012.6
20260507043438 3 0 0.0 0.0 0.00 0.00 0.00 91 1012.5
20260507042939 3 0 0.0 0.0 0.00 0.00 0.00 91 1012.5
20260507042439 3 0 0.0 0.0 0.00 0.00 0.00 91 1012.4
20260507041940 3 0 0.0 0.0 0.00 0.00 0.00 91 1012.4
20260507041439 3 0 0.0 0.0 0.00 0.00 0.00 91 1012.3
20260507040938 3 0 0.0 0.0 0.00 0.00 0.00 91 1012.3
20260507040438 3 0 0.0 0.0 0.00 0.00 0.00 91 1012.2
20260507035938 4 0 0.0 0.0 0.00 0.00 0.00 91 1012.2
20260507035437 4 0 0.0 0.0 0.00 0.00 0.00 91 1012.2
20260507034939 4 0 0.0 0.0 0.00 0.00 0.00 91 1012.1
20260507034437 4 0 0.0 0.0 0.00 0.00 0.00 91 1012.1
20260507033935 4 0 0.0 0.0 0.00 0.00 0.00 91 1012.1
20260507033434 5 0 0.0 0.0 0.00 0.00 0.00 91 1012.1
20260507032934 5 0 0.0 0.0 0.00 0.00 0.00 91 1012.0
20260507032436 5 0 0.0 0.0 0.00 0.00 0.00 91 1012.0
20260507031934 5 0 0.0 0.0 0.00 0.00 0.00 91 1011.9
20260507031434 5 345 0.0 0.0 0.00 0.00 0.00 91 1012.0
20260507030933 5 345 0.0 0.0 0.00 0.00 0.00 91 1012.0
20260507030433 5 345 0.0 0.0 0.00 0.00 0.00 91 1012.0
20260507025934 5 345 0.0 0.0 0.00 0.00 0.00 90 1011.9
20260507025433 5 345 0.0 0.0 0.00 0.00 0.00 90 1011.9
20260507024933 5 345 0.0 0.0 0.00 0.00 0.00 90 1011.8
20260507024433 5 345 0.0 0.0 0.00 0.00 0.00 90 1011.8
20260507023934 5 345 0.0 0.0 0.00 0.00 0.00 90 1011.8
20260507023432 5 345 0.0 0.0 0.00 0.00 0.00 90 1011.7
20260507022932 5 345 0.0 3.2 0.00 0.00 0.00 90 1011.7
20260507022432 5 345 0.0 3.2 0.00 0.00 0.00 90 1011.7
20260507021931 6 0 0.0 3.2 0.00 0.00 0.00 90 1011.6
20260507021434 6 0 1.6 6.4 0.00 0.00 0.00 90 1011.5
20260507020930 6 358 1.6 6.4 0.00 0.00 0.00 90 1011.5
20260507020430 6 0 3.2 6.4 0.00 0.00 0.00 90 1011.5
20260507015931 6 347 4.8 8.0 0.00 0.00 0.00 90 1011.5
20260507015430 6 351 4.8 8.0 0.00 0.00 0.00 90 1011.5
20260507014931 6 354 4.8 8.0 0.00 0.00 0.00 90 1011.4
20260507014430 6 330 3.2 8.0 0.00 0.00 0.00 90 1011.5
20260507013929 6 331 4.8 6.4 0.00 0.00 0.00 90 1011.4
20260507013429 7 343 3.2 4.8 0.00 0.00 0.00 90 1011.4
20260507012931 7 348 1.6 6.4 0.00 0.00 0.00 90 1011.3
20260507012429 7 0 3.2 6.4 0.00 0.00 0.00 90 1011.3
20260507011929 7 0 3.2 4.8 0.00 0.00 0.00 89 1011.2
20260507011426 7 357 0.0 3.2 0.00 0.00 0.00 89 1011.3
20260507010926 7 0 1.6 6.4 0.00 0.00 0.00 89 1011.3
20260507010428 7 23 3.2 9.7 0.00 0.00 0.00 89 1011.2
20260507005926 7 0 3.2 11.3 0.00 0.00 0.00 89 1011.2
20260507005425 7 327 4.8 11.3 0.00 0.00 0.00 89 1011.2
20260507004926 7 358 6.4 11.3 0.00 0.00 0.00 89 1011.1
20260507004423 7 11 6.4 11.3 0.00 0.00 0.00 89 1011.1
20260507003923 7 0 6.4 11.3 0.00 0.00 0.00 89 1011.1
20260507003421 7 334 4.8 11.3 0.00 0.00 0.00 89 1011.1
20260507002921 7 0 6.4 11.3 0.00 0.00 0.00 89 1011.0
20260507002421 7 0 8.0 14.5 0.00 0.00 0.00 89 1011.0
20260507001919 7 354 6.4 14.5 0.00 0.00 0.00 88 1010.9
20260507001418 7 344 6.4 11.3 0.00 0.00 0.00 88 1010.9
20260507000919 7 350 6.4 11.3 0.00 0.00 0.00 88 1011.1
20260507000420 7 343 4.8 11.3 0.00 0.00 0.00 88 1011.1
20260506235918 7 0 6.4 11.3 0.00 0.00 0.00 88 1011.0
20260506235418 7 358 6.4 9.7 0.00 0.00 0.00 88 1011.1
20260506234917 7 351 6.4 9.7 0.00 0.00 0.00 88 1011.1
20260506234417 7 344 6.4 11.3 0.00 0.00 0.00 88 1011.2
20260506233916 7 7 6.4 11.3 0.00 0.00 0.00 88 1011.1
20260506233414 7 7 6.4 11.3 0.00 0.00 0.00 88 1011.1
20260506232914 7 355 4.8 11.3 0.00 0.00 0.00 87 1011.1
20260506232413 7 334 6.4 11.3 0.00 0.00 0.00 87 1011.0
20260506231914 7 0 6.4 11.3 0.00 0.00 0.00 87 1011.0
20260506231414 7 351 8.0 11.3 0.00 0.00 0.00 87 1011.1
20260506230911 7 354 4.8 9.7 0.00 0.00 0.00 87 1011.1
20260506230411 7 355 4.8 9.7 0.00 0.00 0.00 87 1011.0
20260506225911 7 340 4.8 9.7 0.00 0.00 0.00 87 1011.1
20260506225409 7 331 4.8 9.7 0.00 0.00 0.00 87 1011.1
20260506224910 7 0 6.4 8.0 0.00 0.00 0.00 87 1011.1
20260506224411 7 0 4.8 8.0 0.00 0.00 0.00 87 1011.1
20260506223909 7 0 4.8 6.4 0.00 0.00 0.00 87 1011.2
20260506223408 7 0 3.2 8.0 0.00 0.00 0.00 87 1011.1
20260506222908 7 358 4.8 9.7 0.00 0.00 0.00 87 1011.0
20260506222404 7 0 4.8 9.7 0.00 0.00 0.00 86 1011.0
20260506221906 7 338 6.4 9.7 0.00 0.00 0.00 86 1010.9
20260506221406 7 330 4.8 8.0 0.00 0.00 0.00 86 1010.9
20260506220903 7 357 4.8 8.0 0.00 0.00 0.00 86 1011.0
20260506220404 7 353 4.8 8.0 0.00 0.00 0.00 86 1011.0
20260506215903 7 337 3.2 8.0 0.00 0.00 0.00 86 1010.9
20260506215403 7 0 3.2 9.7 0.00 0.00 0.00 85 1010.9
20260506214902 7 345 3.2 9.7 0.00 0.00 0.00 85 1010.8
20260506214402 7 0 3.2 8.0 0.00 0.00 0.00 85 1010.9
20260506213859 7 0 3.2 9.7 0.00 0.00 0.00 85 1010.8
20260506213359 7 0 3.2 9.7 0.00 0.00 0.00 85 1010.7
20260506212858 7 24 3.2 9.7 0.00 0.00 0.00 85 1010.8
20260506212400 7 0 3.2 9.7 0.00 0.00 0.00 85 1010.7
20260506211857 7 27 3.2 16.1 0.00 0.00 0.00 85 1010.7
20260506211357 7 32 3.2 16.1 0.00 0.00 0.00 85 1010.6
20260506210857 7 357 3.2 16.1 0.00 0.00 0.00 85 1010.7
20260506210357 7 28 4.8 17.7 0.00 0.00 0.00 85 1010.6
20260506205854 8 66 4.8 17.7 0.00 0.00 0.00 85 1010.5
20260506205352 8 338 6.4 14.5 0.00 0.00 0.00 85 1010.6
20260506204853 8 24 6.4 14.5 0.00 0.00 0.00 85 1010.5
20260506204354 8 327 6.4 14.5 0.00 0.00 0.00 85 1010.5
20260506203853 8 25 4.8 11.3 0.00 0.00 0.00 85 1010.6
20260506203351 8 3 6.4 14.5 0.00 0.00 0.00 85 1010.5
20260506202853 8 0 4.8 14.5 0.00 0.00 0.00 85 1010.5
20260506202348 8 8 4.8 11.3 0.00 0.00 0.00 85 1010.5
20260506201850 8 0 4.8 9.7 0.00 0.00 0.00 84 1010.5
20260506201349 8 0 4.8 14.5 0.00 0.00 0.00 84 1010.6
20260506200846 8 13 3.2 14.5 0.00 0.00 0.00 84 1010.4
20260506200348 8 0 4.8 14.5 0.00 0.00 0.00 84 1010.3
20260506195848 8 20 4.8 16.1 0.00 0.00 0.00 83 1010.3
20260506195344 8 23 6.4 16.1 0.00 0.00 0.00 83 1010.3
20260506194847 8 3 4.8 14.5 0.00 0.00 0.00 83 1010.3
20260506194346 8 7 3.2 11.3 0.00 0.00 0.00 83 1010.3
20260506193843 8 351 4.8 11.3 0.00 0.00 0.00 82 1010.3
20260506193341 8 355 3.2 9.7 0.00 0.00 0.00 82 1010.2
20260506192840 8 354 3.2 9.7 0.00 0.00 0.00 81 1010.2
20260506192339 8 20 3.2 11.3 0.00 0.00 0.00 81 1010.1
20260506191838 9 25 3.2 11.3 0.00 0.00 0.00 81 1010.1
20260506191336 9 13 3.2 9.7 0.00 0.00 0.00 81 1010.0
20260506190837 9 0 3.2 9.7 0.00 0.00 0.00 81 1009.9
20260506190337 9 1 3.2 16.1 0.00 0.00 0.00 80 1009.8
20260506185833 9 31 3.2 16.1 0.00 0.00 0.00 80 1009.9
20260506185335 9 0 3.2 16.1 0.00 0.00 0.00 80 1009.8
20260506184834 10 350 6.4 16.1 0.00 0.00 0.00 79 1009.7
20260506184332 10 0 4.8 11.3 0.00 0.00 0.00 79 1009.6
20260506183832 10 30 3.2 11.3 0.00 0.00 0.00 79 1009.7
20260506183333 10 16 3.2 9.7 0.00 0.00 0.00 79 1009.5
20260506182831 10 21 3.2 11.3 0.00 0.00 0.00 79 1009.5
20260506182331 10 350 4.8 11.3 0.00 0.00 0.00 79 1009.4
20260506181830 10 0 3.2 20.9 0.00 0.00 0.00 79 1009.4
20260506181328 10 21 6.4 20.9 0.00 0.00 0.00 78 1009.4
20260506180830 10 6 6.4 19.3 0.00 0.00 0.00 78 1009.3
20260506180330 10 6 4.8 19.3 0.00 0.00 0.00 77 1009.3
20260506175829 10 355 4.8 11.3 0.00 0.00 0.00 77 1009.2
20260506175329 10 0 4.8 17.7 0.00 0.00 0.00 76 1009.2
20260506174829 10 1 6.4 17.7 0.00 0.00 0.00 77 1009.2
20260506174328 10 1 6.4 16.1 0.00 0.00 0.00 76 1009.1
20260506173829 10 79 6.4 16.1 0.00 0.00 0.00 76 1009.0
20260506173328 11 30 4.8 19.3 0.00 0.00 0.00 75 1009.0
20260506172827 11 8 4.8 19.3 0.00 0.00 0.00 75 1009.0
20260506172325 11 55 9.7 17.7 0.00 0.00 0.00 73 1009.0
20260506171826 11 35 6.4 19.3 0.00 0.00 0.00 74 1008.9
20260506171326 11 25 6.4 19.3 0.00 0.00 0.00 72 1008.9
20260506170820 12 45 6.4 14.5 0.00 0.00 0.00 73 1009.0
20260506170321 12 0 4.8 14.5 0.00 0.00 0.00 72 1008.9
20260506165820 12 358 6.4 16.1 0.00 0.00 0.00 72 1008.9
20260506165319 12 355 4.8 22.5 0.00 0.00 0.00 71 1008.8
20260506164819 12 35 6.4 22.5 0.00 0.00 0.00 72 1008.9
20260506164318 12 10 6.4 14.5 0.00 0.00 0.00 71 1008.7
20260506163815 12 18 3.2 14.5 0.00 0.00 0.00 73 1008.8
20260506163315 12 28 6.4 14.5 0.00 0.00 0.00 72 1008.9
20260506162813 12 7 3.2 11.3 0.00 0.00 0.00 72 1008.8
20260506162315 12 31 3.2 16.1 0.00 0.00 0.00 71 1008.8
20260506161812 12 23 4.8 16.1 0.00 0.00 0.00 71 1008.8
20260506161313 12 13 4.8 14.5 0.00 0.00 0.00 71 1008.9
20260506160812 12 10 6.4 14.5 0.00 0.00 0.00 71 1008.9
20260506160311 12 0 6.4 16.1 0.00 0.00 0.00 71 1008.9
20260506155815 12 10 8.0 16.1 0.00 0.00 0.00 71 1009.0
20260506155310 12 21 6.4 17.7 0.00 0.00 0.00 72 1008.8
20260506154817 12 25 4.8 19.3 0.00 0.00 0.00 71 1008.9
20260506154309 12 23 4.8 19.3 0.00 0.00 0.00 72 1008.9
20260506153810 12 8 4.8 16.1 0.00 0.00 0.00 72 1009.0
20260506153307 12 21 4.8 16.1 0.00 0.00 0.00 73 1008.9
20260506152805 12 0 4.8 16.1 0.00 0.00 0.00 72 1008.9
20260506152306 12 344 6.4 11.3 0.00 0.00 0.00 73 1008.9
20260506151806 12 35 4.8 9.7 0.00 0.00 0.00 75 1008.8
20260506151306 12 348 4.8 11.3 0.00 0.00 0.00 74 1008.9
20260506150807 12 27 4.8 14.5 0.00 0.00 0.00 74 1008.8
20260506150305 12 21 6.4 14.5 0.00 0.00 0.00 74 1008.9
20260506145805 12 345 6.4 16.1 0.00 0.00 0.00 75 1009.0
20260506145306 12 39 8.0 16.1 0.00 0.00 0.00 75 1009.0
20260506144805 12 334 4.8 17.7 0.00 0.00 0.00 75 1009.0
20260506144306 12 343 6.4 17.7 0.00 0.00 0.00 75 1008.9
20260506143805 12 31 6.4 16.1 0.00 0.00 0.00 76 1008.9
20260506143305 12 0 6.4 16.1 0.00 0.00 0.00 75 1008.9
20260506142805 12 0 6.4 14.5 0.00 0.00 0.00 76 1009.0
20260506142306 12 18 4.8 19.3 0.00 0.00 0.00 75 1008.9
20260506141804 12 51 4.8 19.3 0.00 0.00 0.00 76 1008.9
20260506141303 12 334 6.4 11.3 0.00 0.00 0.00 75 1009.0
20260506140804 12 20 6.4 11.3 0.00 0.00 0.00 75 1008.9
20260506140303 12 16 4.8 11.3 0.00 0.00 0.00 75 1008.8
20260506135803 12 8 4.8 11.3 0.00 0.00 0.00 75 1008.8
20260506135305 12 8 6.4 17.7 0.00 0.00 0.00 75 1008.8
20260506134800 12 28 6.4 17.7 0.00 0.00 0.00 75 1008.9
20260506134259 12 27 4.8 9.7 0.00 0.00 0.00 76 1008.8
20260506133801 12 18 6.4 9.7 0.00 0.00 0.00 74 1008.8
20260506133259 12 71 4.8 14.5 0.00 0.00 0.00 75 1008.8
20260506132752 12 28 6.4 16.1 0.00 0.00 0.00 76 1008.8
20260506132248 12 0 6.4 20.9 0.00 0.00 0.00 74 1008.8
20260506131748 13 17 6.4 20.9 0.00 0.00 0.00 74 1008.8
20260506131248 13 341 6.4 14.5 0.00 0.00 0.00 71 1008.8
20260506130748 13 7 4.8 14.5 0.00 0.00 0.00 70 1008.7
20260506130249 13 27 6.4 14.5 0.00 0.00 0.00 71 1008.6
20260506125749 13 330 6.4 16.1 0.00 0.00 0.00 71 1008.7
20260506125246 13 34 6.4 16.1 0.00 0.00 0.00 71 1008.7
20260506124746 13 27 4.8 14.5 0.00 0.00 0.00 70 1008.6
20260506124247 13 0 4.8 8.0 0.00 0.00 0.00 69 1008.6
20260506123744 13 11 4.8 9.7 0.00 0.00 0.00 67 1008.6
20260506123245 13 23 6.4 14.5 0.00 0.00 0.00 67 1008.6
20260506122744 13 17 6.4 19.3 0.00 0.00 0.00 66 1008.5
20260506122244 13 48 8.0 19.3 0.00 0.00 0.00 67 1008.5
20260506121744 13 14 4.8 11.3 0.00 0.00 0.00 66 1008.5
20260506121243 13 45 6.4 11.3 0.00 0.00 0.00 67 1008.5
20260506120742 13 56 6.4 11.3 0.00 0.00 0.00 66 1008.4
20260506120243 13 21 6.4 9.7 0.00 0.00 0.00 68 1008.5
20260506115742 13 24 6.4 16.1 0.00 0.00 0.00 67 1008.5
20260506115244 13 25 8.0 16.1 0.00 0.00 0.00 65 1008.4
20260506114742 13 42 6.4 9.7 0.00 0.00 0.00 66 1008.5
20260506114243 13 25 4.8 11.3 0.00 0.00 0.00 66 1008.4
20260506113751 13 47 6.4 11.3 0.00 0.00 0.00 66 1008.5
20260506113249 13 47 4.8 9.7 0.00 0.00 0.00 65 1008.5
20260506112750 13 13 6.4 16.1 0.00 0.00 0.00 66 1008.4
20260506112248 13 45 8.0 16.1 0.00 0.00 0.00 66 1008.5
20260506111746 13 38 4.8 11.3 0.00 0.00 0.00 66 1008.4
20260506111245 13 24 8.0 14.5 0.00 0.00 0.00 68 1008.3
20260506110745 13 14 6.4 14.5 0.00 0.00 0.00 67 1008.4
20260506110241 13 39 6.4 17.7 0.00 0.00 0.00 66 1008.4
20260506105742 13 18 6.4 17.7 0.00 0.00 0.00 67 1008.3
20260506105241 13 11 4.8 17.7 0.00 0.00 0.00 69 1008.3
20260506104741 13 10 6.4 17.7 0.00 0.00 0.00 67 1008.3
20260506104242 13 44 8.0 19.3 0.00 0.00 0.00 68 1008.3
20260506103740 13 86 6.4 19.3 0.00 0.00 0.00 68 1008.3
20260506103241 13 3 6.4 16.1 0.00 0.00 0.00 68 1008.2
20260506102740 13 44 8.0 22.5 0.00 0.00 0.00 68 1008.3
20260506102240 13 44 6.4 22.5 0.00 0.00 0.00 67 1008.2
20260506101740 13 62 12.9 22.5 0.00 0.00 0.00 65 1008.2
20260506101240 13 51 6.4 22.5 0.00 0.00 0.00 68 1008.2
20260506100741 13 37 9.7 22.5 0.00 0.00 0.00 67 1008.1
20260506100240 13 0 9.7 24.1 0.00 0.00 0.00 67 1008.2
20260506095740 12 63 11.3 24.1 0.00 0.00 0.00 67 1008.1
20260506095240 12 23 8.0 24.1 0.00 0.00 0.00 68 1008.1
20260506094739 12 56 8.0 24.1 0.00 0.00 0.00 67 1008.2
20260506094240 12 31 9.7 20.9 0.00 0.00 0.00 68 1008.1
20260506093740 12 48 8.0 20.9 0.00 0.00 0.00 67 1008.1
20260506093241 12 39 11.3 20.9 0.00 0.00 0.00 68 1008.0
20260506092740 12 45 6.4 20.9 0.00 0.00 0.00 69 1008.1
20260506092240 12 44 9.7 20.9 0.00 0.00 0.00 70 1008.1
20260506091741 12 41 4.8 25.7 0.00 0.00 0.00 72 1008.1
20260506091240 12 20 4.8 25.7 0.00 0.00 0.00 70 1008.0
20260506090740 12 65 8.0 20.9 0.00 0.00 0.00 70 1008.0
20260506090240 12 30 4.8 16.1 0.00 0.00 0.00 72 1008.1
20260506085740 11 45 4.8 22.5 0.00 0.00 0.00 70 1008.1
20260506085240 11 3 8.0 22.5 0.00 0.00 0.00 70 1008.1
20260506084740 11 39 6.4 20.9 0.00 0.00 0.00 71 1008.1
20260506084241 11 21 6.4 20.9 0.00 0.00 0.00 72 1008.1
20260506083739 11 34 4.8 11.3 0.00 0.00 0.00 75 1008.1
20260506083240 11 0 4.8 16.1 0.00 0.00 0.00 75 1008.1
20260506082740 11 30 4.8 16.1 0.00 0.00 0.00 74 1008.1
20260506082240 11 87 3.2 9.7 0.00 0.00 0.00 75 1008.1
20260506081740 11 47 4.8 14.5 0.00 0.00 0.00 75 1008.1
20260506081240 11 32 4.8 14.5 0.00 0.00 0.00 76 1008.0
20260506080739 11 56 4.8 14.5 0.00 0.00 0.00 75 1008.1
20260506080237 11 31 3.2 22.5 0.00 0.00 0.00 77 1008.0
20260506073233 10 28 3.2 9.7 0.00 0.00 0.00 78 1007.9
20260506072730 10 51 4.8 9.7 0.00 0.00 0.00 79 1007.8
20260506072230 10 20 3.2 8.0 0.00 0.00 0.00 78 1007.8
20260506071730 10 37 4.8 17.7 0.00 0.00 0.00 79 1007.8
20260506071229 10 0 6.4 17.7 0.00 0.00 0.00 80 1007.7
20260506070728 10 37 4.8 11.3 0.00 0.00 0.00 80 1007.8
20260506070228 10 28 6.4 17.7 0.00 0.00 0.00 81 1007.7
20260506062225 10 48 4.8 9.7 0.00 0.00 0.00 88 1007.7
20260506061722 9 37 3.2 8.0 0.00 0.00 0.00 89 1007.6
20260506061221 9 23 4.8 9.7 0.00 0.00 0.00 89 1007.6
20260506060722 9 18 3.2 11.3 0.00 0.00 0.00 89 1007.6